When you browse on this site, cookies collect data to enhance your experience and personalize the content and advertising you see.
Visit our Privacy Policy to learn more. By continuing to use the site, you agree to this use of cookies and data.
  • In Hungary
  • List of Countries
  • For 7 days
  • Water Temperature
  • Weather Map
  • News
  • Weather Widgets
  • user-avatar
    Login

    Hourly Weather Adamowo

    Today, 30 March, Monday

    Time Temperature Precipitation Wind Pressure Humidity
    00:00 -4°C° 0 mm 4 mps 763 mmHg 67%
    01:00 -4°C° 0 mm 3 mps 763 mmHg 68%
    02:00 -4°C° 0 mm 3 mps 763 mmHg 69%
    03:00 -5°C° 0 mm 3 mps 763 mmHg 70%
    04:00 -5°C° 0 mm 3 mps 763 mmHg 72%
    05:00 -4°C° 0 mm 3 mps 763 mmHg 66%
    06:00 -4°C° 0 mm 3 mps 763 mmHg 60%
    07:00 -2°C° 0 mm 3 mps 763 mmHg 54%
    08:00 0°C° 0 mm 3 mps 763 mmHg 50%
    09:00 +1°C° 0 mm 3 mps 763 mmHg 46%
    10:00 +3°C° 0 mm 4 mps 762 mmHg 41%
    11:00 +4°C° 0 mm 4 mps 762 mmHg 39%
    12:00 +4°C° 0 mm 4 mps 762 mmHg 36%
    13:00 +5°C° 0 mm 4 mps 761 mmHg 33%
    14:00 +5°C° 0 mm 4 mps 761 mmHg 34%
    15:00 +5°C° 0 mm 4 mps 760 mmHg 34%
    16:00 +5°C° 0 mm 4 mps 760 mmHg 35%
    17:00 +3°C° 0 mm 4 mps 760 mmHg 44%
    18:00 +1°C° 0 mm 3 mps 760 mmHg 53%
    19:00 +1°C° 0 mm 2 mps 760 mmHg 62%
    20:00 +1°C° 0.2 mm 2 mps 760 mmHg 71%
    21:00 0°C° 0.2 mm 3 mps 761 mmHg 80%
    22:00 -1°C° 0.2 mm 3 mps 761 mmHg 89%
    23:00 -1°C° 0.3 mm 3 mps 761 mmHg 87%

    Tomorrow, 31 March, Tuesday

    Time Temperature Precipitation Wind Pressure Humidity
    00:00 -3°C° 0.3 mm 4 mps 762 mmHg 84%
    01:00 -3°C° 0.3 mm 4 mps 762 mmHg 82%
    02:00 -4°C° 0 mm 4 mps 762 mmHg 79%
    03:00 -5°C° 0 mm 4 mps 762 mmHg 76%
    04:00 -5°C° 0 mm 3 mps 763 mmHg 74%
    05:00 -5°C° 0 mm 4 mps 763 mmHg 72%
    06:00 -4°C° 0 mm 4 mps 764 mmHg 70%
    07:00 -3°C° 0 mm 4 mps 764 mmHg 69%
    08:00 -2°C° 0 mm 4 mps 764 mmHg 64%
    09:00 -1°C° 0 mm 4 mps 764 mmHg 60%
    10:00 +1°C° 0 mm 4 mps 764 mmHg 56%
    11:00 +3°C° 0.1 mm 4 mps 764 mmHg 52%
    12:00 +2°C° 0.1 mm 5 mps 764 mmHg 49%
    13:00 +3°C° 0.1 mm 5 mps 764 mmHg 45%
    14:00 +3°C° 0 mm 5 mps 764 mmHg 44%
    15:00 +4°C° 0 mm 4 mps 763 mmHg 44%
    16:00 +4°C° 0 mm 4 mps 763 mmHg 43%
    17:00 +1°C° 0 mm 4 mps 763 mmHg 49%
    18:00 +1°C° 0 mm 3 mps 763 mmHg 54%
    19:00 -1°C° 0 mm 2 mps 763 mmHg 60%
    20:00 -1°C° 0 mm 2 mps 763 mmHg 61%
    21:00 -2°C° 0 mm 2 mps 763 mmHg 61%
    22:00 -2°C° 0 mm 2 mps 763 mmHg 62%
    23:00 -2°C° 0 mm 2 mps 763 mmHg 66%

    Day after tomorrow, 1 April, Wednesday

    Time Temperature Precipitation Wind Pressure Humidity
    00:00 -4°C° 0 mm 3 mps 762 mmHg 70%
    01:00 -4°C° 0 mm 3 mps 762 mmHg 74%
    02:00 -4°C° 0 mm 3 mps 761 mmHg 74%
    03:00 -4°C° 0 mm 3 mps 761 mmHg 73%
    04:00 -4°C° 0 mm 4 mps 760 mmHg 72%
    05:00 -3°C° 0 mm 4 mps 760 mmHg 68%
    06:00 -2°C° 0 mm 5 mps 760 mmHg 65%
    07:00 -2°C° 0 mm 5 mps 760 mmHg 61%
    08:00 -1°C° 0 mm 6 mps 759 mmHg 56%
    09:00 +2°C° 0 mm 6 mps 758 mmHg 51%
    10:00 +3°C° 0 mm 6 mps 758 mmHg 46%
    11:00 +4°C° 0 mm 6 mps 758 mmHg 47%
    12:00 +5°C° 0 mm 6 mps 757 mmHg 48%
    13:00 +7°C° 0 mm 6 mps 757 mmHg 49%
    14:00 +7°C° 0 mm 6 mps 756 mmHg 51%
    15:00 +5°C° 0 mm 6 mps 756 mmHg 54%
    16:00 +5°C° 0 mm 6 mps 755 mmHg 56%
    17:00 +5°C° 0 mm 5 mps 755 mmHg 62%
    18:00 +4°C° 0 mm 4 mps 755 mmHg 68%
    19:00 +3°C° 0 mm 3 mps 755 mmHg 74%
    20:00 +3°C° 0 mm 4 mps 755 mmHg 76%
    21:00 +1°C° 0 mm 4 mps 754 mmHg 79%
    22:00 +1°C° 0 mm 4 mps 754 mmHg 81%
    23:00 +1°C° 0 mm 4 mps 754 mmHg 83%

    2 April, Thursday

    Time Temperature Precipitation Wind Pressure Humidity
    00:00 +1°C° 0 mm 5 mps 753 mmHg 84%
    01:00 +1°C° 0 mm 5 mps 753 mmHg 85%
    02:00 +1°C° 0 mm 5 mps 753 mmHg 86%
    03:00 0°C° 0 mm 5 mps 753 mmHg 86%
    04:00 0°C° 0 mm 5 mps 752 mmHg 87%
    05:00 0°C° 0 mm 5 mps 752 mmHg 85%
    06:00 +1°C° 0 mm 6 mps 752 mmHg 83%
    07:00 +1°C° 0 mm 6 mps 752 mmHg 81%
    08:00 +1°C° 0 mm 6 mps 752 mmHg 78%
    09:00 +2°C° 0 mm 6 mps 752 mmHg 76%
    10:00 +3°C° 0 mm 6 mps 752 mmHg 74%
    11:00 +4°C° 0 mm 6 mps 752 mmHg 71%
    12:00 +5°C° 0 mm 6 mps 752 mmHg 68%
    13:00 +5°C° 0 mm 6 mps 752 mmHg 65%
    14:00 +7°C° 0 mm 5 mps 752 mmHg 64%
    15:00 +7°C° 0 mm 5 mps 751 mmHg 63%
    16:00 +7°C° 0 mm 5 mps 751 mmHg 62%
    17:00 +7°C° 0 mm 4 mps 751 mmHg 65%
    18:00 +6°C° 0 mm 4 mps 750 mmHg 68%
    19:00 +5°C° 0 mm 3 mps 750 mmHg 71%
    20:00 +5°C° 0 mm 3 mps 750 mmHg 70%
    21:00 +6°C° 0 mm 4 mps 749 mmHg 69%
    22:00 +6°C° 0 mm 4 mps 749 mmHg 68%
    23:00 +5°C° 0 mm 5 mps 749 mmHg 69%

    3 April, Friday

    Time Temperature Precipitation Wind Pressure Humidity
    00:00 +5°C° 0 mm 5 mps 748 mmHg 70%
    01:00 +5°C° 0 mm 5 mps 748 mmHg 71%
    02:00 +5°C° 0 mm 5 mps 747 mmHg 72%
    03:00 +3°C° 0 mm 6 mps 747 mmHg 73%
    04:00 +3°C° 0 mm 6 mps 747 mmHg 74%
    05:00 +3°C° 0 mm 7 mps 747 mmHg 76%
    06:00 +3°C° 0 mm 7 mps 747 mmHg 78%
    07:00 +4°C° 0 mm 7 mps 748 mmHg 79%
    08:00 +4°C° 0.4 mm 7 mps 748 mmHg 74%
    09:00 +4°C° 0.4 mm 7 mps 749 mmHg 69%
    10:00 +4°C° 0.4 mm 7 mps 749 mmHg 63%
    11:00 +5°C° 0 mm 8 mps 750 mmHg 56%
    12:00 +6°C° 0 mm 8 mps 750 mmHg 49%
    13:00 +7°C° 0 mm 9 mps 751 mmHg 42%
    14:00 +6°C° 0.1 mm 8 mps 751 mmHg 45%
    15:00 +6°C° 0.1 mm 8 mps 752 mmHg 48%
    16:00 +5°C° 0.1 mm 8 mps 752 mmHg 50%
    17:00 +4°C° 0.1 mm 7 mps 753 mmHg 54%
    18:00 +3°C° 0.1 mm 5 mps 753 mmHg 58%
    19:00 +3°C° 0.1 mm 4 mps 754 mmHg 62%
    20:00 +3°C° 0 mm 4 mps 755 mmHg 63%
    21:00 +1°C° 0 mm 4 mps 756 mmHg 65%
    22:00 +1°C° 0 mm 4 mps 756 mmHg 67%
    23:00 0°C° 0 mm 4 mps 757 mmHg 69%

    4 April, Saturday

    Time Temperature Precipitation Wind Pressure Humidity
    00:00 0°C° 0 mm 4 mps 757 mmHg 72%
    01:00 -1°C° 0 mm 4 mps 758 mmHg 74%
    02:00 -1°C° 0 mm 4 mps 759 mmHg 75%
    03:00 -2°C° 0 mm 4 mps 759 mmHg 77%
    04:00 -2°C° 0 mm 4 mps 760 mmHg 78%
    05:00 -2°C° 0 mm 5 mps 761 mmHg 75%
    06:00 -1°C° 0 mm 5 mps 761 mmHg 72%
    07:00 -1°C° 0 mm 5 mps 762 mmHg 68%
    08:00 +1°C° 0 mm 5 mps 763 mmHg 62%
    09:00 +2°C° 0 mm 5 mps 763 mmHg 55%
    10:00 +5°C° 0 mm 5 mps 764 mmHg 49%
    11:00 +6°C° 0 mm 5 mps 764 mmHg 46%
    12:00 +6°C° 0 mm 5 mps 764 mmHg 44%
    13:00 +7°C° 0 mm 5 mps 765 mmHg 42%
    14:00 +7°C° 0 mm 4 mps 765 mmHg 42%
    15:00 +8°C° 0 mm 4 mps 765 mmHg 42%
    16:00 +8°C° 0 mm 4 mps 765 mmHg 41%
    17:00 +7°C° 0 mm 3 mps 765 mmHg 46%
    18:00 +6°C° 0 mm 2 mps 766 mmHg 51%
    19:00 +5°C° 0 mm 1 mps 766 mmHg 55%
    20:00 +5°C° 0 mm 1 mps 766 mmHg 56%
    21:00 +4°C° 0 mm 1 mps 767 mmHg 57%
    22:00 +2°C° 0 mm 2 mps 768 mmHg 57%
    23:00 +2°C° 0 mm 2 mps 768 mmHg 59%
    Show more